User: anonymous   Login
Location: Pabrico
(37.5827°N, 122.0063°W)
Time: 08:33:20
(UTC+00:00)
Language:

Cosmos 1340 - Orbit

View from above orbital plane
View from above orbital plane
View from above satellite
View from above satellite

Ground track
Ground track

The orbit data is extracted from the following two-line orbital elements,

1 13067U 82013A   24166.61027889  .00021462  00000-0  46957-3 0  9990
2 13067  81.1770  15.9158 0002571 161.9825 198.1511 15.44007438316450
Epoch (UTC): 14 June 2024 14:38:48
Eccentricity: 0.0002571
inclination: 81.1770°
perigee height: 432 km
apogee height: 436 km
right ascension of ascending node: 15.9158°
argument of perigee: 161.9825°
revolutions per day: 15.44007438
mean anomaly at epoch: 198.1511°
orbit number at epoch: 31645

The dashed part of the orbit path shows where the satellite is in the earth's shadow,  

DLR